Location: Heilbronn
(49.1548°N, 9.2780°E)
Time: 00:28:30
(UTC+01:00)

N. Korean satellite - Visible Passes

Search period start: 18 February 2018 00:00
Search period end: 28 February 2018 00:00
Orbit: 459 x 514 km, 97.2° (Epoch: 17 February)

Date Brightness Start Highest point End Pass type
(mag) Time Alt. Az. Time Alt. Az. Time Alt. Az.
18 Feb 10.3 05:58:15 10° ENE 05:59:47 12° E 06:01:18 10° ESE visible
19 Feb 10.1 19:21:53 10° WSW 19:23:35 13° W 19:25:18 10° WNW visible
20 Feb 8.5 06:42:42 10° NNE 06:46:08 37° E 06:49:35 10° SSE visible
20 Feb 9.3 18:56:48 10° SSW 18:59:38 23° W 19:02:30 10° NW visible
21 Feb 9.7 06:19:25 10° NE 06:22:16 21° E 06:25:08 10° SE visible
21 Feb 7.9 18:32:27 10° S 18:35:46 44° W 18:39:09 10° NNW visible
22 Feb 10.4 05:56:49 10° ENE 05:58:19 12° E 05:59:49 10° ESE visible
23 Feb 10.1 19:20:15 10° WSW 19:22:04 14° W 19:23:56 10° WNW visible
24 Feb 8.6 06:41:12 10° NNE 06:44:39 36° E 06:48:07 10° SSE visible
24 Feb 9.2 18:55:13 10° SSW 18:58:07 24° W 19:01:03 10° NW visible
25 Feb 9.8 06:17:55 10° NE 06:20:46 21° E 06:23:38 10° SE visible
25 Feb 7.8 18:30:53 10° S 18:34:14 45° W 18:37:40 10° NNW visible
26 Feb 10.5 05:55:21 10° ENE 05:56:48 12° E 05:58:15 10° ESE visible
27 Feb 10.1 19:18:33 10° SW 19:20:30 14° W 19:22:29 10° NW visible
